Погода в Арсинском

Россия / Челябинская область     53°45′04″N   59°53′12″E
темп.,
°C
ветер,
м/с
пор.,
м/с
влажн.,
%
обл.,
%
осадки,
мм/ч
давл.,
гПа
погр.,
м
20 июня, вс
вс2023:00+15з51475100 0.1 1017402
02:00+16з7158050 0.0 1014448
05:00+15з7158820 0.0 1013438
08:00+20зсз713725 0.0 1012832
11:00+23сз9136010 0.0 10131527
14:00+24сз1014470 0.0 10132037
17:00+23с913400 0.0 10142137
20:00+17с713480 0.0 1016772
21 июня, пн
пн2123:00+14ссз714430 0.0 1018633
02:00+12ссз512460 0.0 1020358
05:00+9сз410580 0.0 1021200
08:00+14ссз610464 0.0 10221025
11:00+17с79370 0.0 10231489
14:00+20с69315 0.0 10221812
17:00+20с57319 0.0 10221863
20:00+18с225092 0.0 102115
22 июня, вт
вт2223:00+14ююв225415 0.0 102217
02:00+15юз2452100 0.0 102187
05:00+14з477112 0.0 1020123
08:00+19зсз45675 0.0 1019284
11:00+24сз565720 0.1 10181160
14:00+27ссз5842100 0.0 10172534
17:00+27ссз69475 0.0 10171535
20:00+20зсз61278100 0.3 1017279
23 июня, ср
ср2323:00+19з5118010 0.3 1017210
02:00+18сз41181100 0.0 1016212
05:00+17сз48850 0.0 1016137
08:00+19ссв578190 0.0 1017458
11:00+21св456868 0.0 10171026
14:00+19всв767295 0.0 1018562
17:00+13в459157 1.2 1020305
20:00+14всв3484100 0.1 1020388
24 июня, чт
чт2423:00+12в348672 0.1 1020284
02:00+12юв2384100 0.0 1020249
05:00+12вюв2479100 0.0 1019230
08:00+12в3579100 0.1 1021295
11:00+12в237596 0.1 1022330
14:00+19в344514 0.0 10211910
17:00+20всв344011 0.0 10202010
20:00+18всв35570 0.0 1021142